Location: Newark
(25.4800°N, 85.7200°E)
Time: 23:02:05
(UTC+00:00)

Transit 4A - Pass Details

Date: 27 August 2019
Orbit: 867 x 978 km, 66.8° (Epoch: 23 October)

Event Time Altitude Azimuth Distance (km) Brightness Sun altitude
Rises 09:49:35 0° 182° (S) 3,627 11.1 37.9°
Reaches altitude 10° 09:52:17 10° 174° (S) 2,695 10.4 37.3°
Maximum altitude 09:58:04 39° 108° (ESE) 1,428 8.8 36.0°
Drops below altitude 10° 10:03:54 10° 42° (NE) 2,725 10.1 34.7°
Sets 10:06:38 0° 35° (NE) 3,672 10.7 34.0°
